www.pogodaiklimat.ru

Погода и климат >> Архив погоды >> Вьетнам >> Куангнгай


ПОГОДА в Куангнгае

  • Прогноз погоды в Куангнгае
  • Монитор погоды в Куангнгае

АРХИВ ПОГОДЫ в Куангнгае

Время (UTC), дата Ветер
(напр.,м/с)
 
Видим.   Явления Облачность Т
(С)
Тd
(С)
f
(%)
Тe
(С)
Тes
(С)
Комфортность P
(гПа)
Po
(гПа)
Тmin
(С)
Tmax
(С)
R
(мм)
R24
(мм)
S
(см)
00 12.06 штиль 0 20 км 9/0
[Cs]
+29.6 +26.2 82 +45 +49 опасность
перегрева
1005.0 1003.9 +28.2
03 12.06 ЮЗ 1 20 км 9/1 600 м
[Cu med, cong Cs]
+35.6 +24.1 52 +48 +63 опасность
перегрева
1006.0 1004.9
06 12.06 В 2 20 км 9/3 600 м
[Cu med, cong Cs]
+38.4 +25.6 48 +52 +64 опасность
перегрева
1004.3 1003.2
09 12.06 В 2 20 км гроза без осадков 9/4 600 м
[Cb cap Cs]
+35.8 +24.7 53 +49 +51 опасность
перегрева
1003.1 1002.0
12 12.06 ЮЗ 2 20 км {гроза, ливн. осадки} 9/3 600 м
[Cb cap Cs]
+29.2 +25.5 80 +43 +43 опасность
перегрева
1004.2 1003.1 +38.6 0.0
15 12.06 штиль 0 20 км 9/3 1000 м
[Sc Cs]
+29.0 +25.4 81 +43 +43 опасность
перегрева
1006.1 1005.0
18 12.06 З 1 20 км 9/0
[Cs]
+28.4 +25.5 84 +42 +42 опасность
перегрева
1004.6 1003.5
21 12.06 З 1 20 км 9/0
[Cs]
+27.4 +24.2 83 +38 +38 очень
душно
1003.5 1002.4
00 13.06 штиль 0 20 км 9/1 600 м
[Cu med, cong Cs]
+28.3 +24.5 80 +40 +43 очень
душно
1005.2 1004.1 +26.6
03 13.06 штиль 0 20 км 9/1 600 м
[Cu med, cong Cs]
+36.1 +23.7 49 +47 +65 опасность
перегрева
1005.1 1004.0
06 13.06 В 2 20 км 9/3 600 м
[Cu med, cong Cs]
+38.7 +24.8 45 +51 +62 опасность
перегрева
1003.0 1001.9
09 13.06 З 4 20 км гроза без осадков 9/9 600 м
[Cb cap]
+34.1 +24.8 58 +47 +47 опасность
перегрева
1004.1 1003.0
12 13.06 штиль 0 10 км в посл. час ливневой дождь {гроза} 9/3 600 м
[Cb cap Cs]
+27.7 +25.1 86 +40 +40 очень
душно
1004.7 1003.6 +38.9 1
15 13.06 С 1 10 км 9/3 600 м
[Cu med, cong Cs]
+28.3 +25.0 82 +41 +41 опасность
перегрева
1006.3 1005.2
18 13.06 СЗ 1 10 км 9/5 600 м
[Cu Sc Cs]
+27.9 +24.9 84 +40 +40 очень
душно
1004.5 1003.4
21 13.06 штиль 0 10 км 9/3 600 м
[Cu hum Cs]
+27.5 +25.2 87 +40 +40 очень
душно
1002.9 1001.8
00 14.06 штиль 0 20 км 9/9 600 м
[Cu Sc]
+28.6 +26.0 86 +43 +44 опасность
перегрева
1004.1 1003.0 +27.1
03 14.06 штиль 0 20 км 9/3 1000 м
[Sc Cs]
+34.8 +24.6 56 +48 +62 опасность
перегрева
1005.0 1003.9
06 14.06 ЮВ 2 20 км 9/3 600 м
[Cu med, cong Cs]
+37.4 +26.2 53 +53 +65 опасность
перегрева
1003.0 1001.9
09 14.06 В 1 20 км 9/5 600 м
[Cb cap Cs]
+34.4 +24.8 57 +47 +50 опасность
перегрева
1003.0 1001.9
12 14.06 ЮЗ 1 10 км {гроза, ливн. осадки} 9/3 600 м
[Cb cap Cs]
+28.0 +25.4 86 +41 +41 опасность
перегрева
1004.5 1003.4 +37.8 0.2
18 14.06 штиль 0 10 км 9/9 600 м
[Cu Sc]
+28.4 +25.4 84 +42 +42 опасность
перегрева
1004.4 1003.3
00 15.06 З 1 20 км 9/6 600 м
[Cu Sc Cs]
+28.4 +24.9 81 +41 +42 опасность
перегрева
1004.9 1003.8 +27.3
06 15.06 В 2 20 км 9/5 600 м
[Cb cap Cs]
+37.5 +26.0 52 +53 +61 опасность
перегрева
1003.1 1002.0
12 15.06 штиль 0 10 км слаб. ливневой дождь {гроза} 9/9 600 м
[Cb cap]
+26.5 +24.7 90 +38 +38 очень
душно
1004.6 1003.5 +38.1 13
18 15.06 штиль 0 10 км {ливн. осадки} 9/9 600 м
[Cu Sc]
+27.4 +25.4 89 +40 +40 очень
душно
1004.6 1003.5 0.0
00 16.06 штиль 0 20 км 9/9 600 м
[Cu Sc]
+28.3 +25.1 83 +41 +42 опасность
перегрева
1003.7 1002.6 +26.3 0.0
06 16.06 ЮВ 1 20 км 9/8 600 м
[Cu Sc Cs]
+34.7 +23.5 52 +45 +50 опасность
перегрева
1003.8 1002.7 0.0
12 16.06 Ю 1 20 км 9/5 600 м
[Cb cap Cs]
+31.2 +25.8 73 +46 +46 опасность
перегрева
1004.9 1003.8 +35.4 0.0
18 16.06 штиль 0 20 км 9/3 600 м
[Cu med, cong Cs]
+28.3 +25.4 84 +41 +41 опасность
перегрева
1004.6 1003.5
00 17.06 штиль 0 20 км 9/3 1000 м
[Sc Cs]
+28.2 +26.1 88 +42 +45 опасность
перегрева
1004.6 1003.5 +27.1
06 17.06 В 2 20 км 9/3 600 м
[Cu med, cong Cs]
+37.7 +26.2 52 +53 +65 опасность
перегрева
1002.9 1001.8
09 17.06 З 2 20 км {гроза} 9/9 600 м
[Cb cap]
+31.4 +25.2 70 +45 +46 опасность
перегрева
1003.9 1002.8
12 17.06 Ю 1 20 км {гроза} 9/4
[Cb cap Cs]
+29.5 +24.9 76 +42 +42 опасность
перегрева
1005.6 1004.5 +38.0
15 17.06 С 2 20 км 9/4 1000 м
[Sc Cs]
+28.7 +24.5 78 +41 +41 опасность
перегрева
1006.5 1005.4
18 17.06 С 1 20 км 9/9 600 м
[Cu Sc]
+28.2 +24.6 81 +40 +40 очень
душно
1005.3 1004.2
21 17.06 штиль 0 20 км 9/9 600 м
[Cu Sc]
+28.0 +24.5 81 +39 +39 очень
душно
1004.6 1003.5
00 18.06 З 1 20 км 9/4 1000 м
[Sc Cs]
+28.4 +24.6 80 +40 +42 очень
душно
1005.4 1004.3 +27.5
03 18.06 ЮВ 1 20 км 9/5 1500 м
[Sc Cs]
+33.8 +25.0 60 +47 +56 опасность
перегрева
1006.1 1005.0
06 18.06 ЮВ 1 20 км 9/4 600 м
[Cu med, cong Cs]
+35.4 +24.8 54 +48 +60 опасность
перегрева
1004.8 1003.7
09 18.06 С 1 20 км в посл. час ливневой дождь 9/6 600 м
[Cb cap Cs]
+32.0 +26.7 74 +49 +52 опасность
перегрева
1004.2 1003.1
12 18.06 ЮЗ 2 20 км {гроза, ливн. осадки} 9/1 600 м
[Cb cap Cs]
+28.5 +25.8 85 +42 +42 опасность
перегрева
1005.3 1004.2 +36.1 2
15 18.06 ЮЗ 1 20 км 9/8 600 м
[Cb cap Cs]
+28.0 +25.0 84 +40 +40 очень
душно
1007.5 1006.4
18 18.06 штиль 0 20 км 9/6 1000 м
[Sc Cs]
+28.0 +25.7 87 +41 +41 опасность
перегрева
1006.5 1005.4

 

Местоположение метеостанции Куангнгай (Вьетнам): широта 15.13 долгота 108.78 высота над уровнем моря 9 м.

В архиве по умолчанию представлена погода в Куангнгае за последнюю неделю. Архивные данные за месяц целиком и за предыдущие месяцы, начиная с января 2011 года, Вы можете получить, выбрав интересующий диапазон дат из раскрывающегося списка и нажав кнопку "Ввод!".


*Определитесь, кто Вы:
робот инопланетянин человек

Внимание! Время в таблицах - всемирное. Для получения местного времени необходимо прибавить поправку, которая равна 7 ч.

Смотрите также архив погоды в соседних городах и на ближайших метеорологических станциях:

Погода в Дананге (Вьетнам) (114 км)
Погода в Плейку (Вьетнам) (153 км)
Погода в Куинёне (Вьетнам) (158 км)
Погода в Хюэ (Вьетнам) (193 км)
Погода в Аттапы (Лаос) (213 км)
Погода в Секонге (Лаос) (220 км)
Погода в Сараване (Лаос) (262 км)
Погода в Буонметхуоте (Вьетнам) (283 км)
Погода в Паксе (Лаос) (322 км)
Погода в Нячанге (Вьетнам) (327 км)

Пояснения к столбцам:

Ветер - указаны скорость ветра в м/с - средняя за 10 мин, порывы в срок и между сроками (в фигурных скобках) и направление, откуда дует ветер: С - северный, СВ - северо-восточный, В - восточный, ЮВ - юго-восточный, Ю - южный, ЮЗ - юго-западный, З - западный, СЗ - северо-западный.
Видимость - горизонтальная дальность видимости в метрах или километрах. При видимости от 1 до 10 км при отсутствии осадков обычно наблюдается дымка, при ухудшении видимости до 1 км и менее - туман. В сухую погоду видимость может ухудшаться дымом, пылью или мглою.
Явления - указаны атмосферные явления, наблюдавшиеся в срок или в последний час перед сроком; фигурными скобками обозначены явления, наблюдавшиеся между сроками (за 1-3 часа до срока); квадратными скобками обозначены град или гололедные отложения с указанием их диаметра в мм.
Облачность - указаны через наклонную черту общая и нижняя облачность в баллах и высота нижней границы облаков в метрах; квадратными скобками обозначены формы облаков: Ci - перистые, Cs - перисто-слоистые, Cc - перисто-кучевые, Ac - высококучевые, As - высокослоистые, Sc - слоисто-кучевые, Ns - слоисто-дождевые, Cu - кучевые, Cb - кучево-дождевые. Подробнее классификацию облаков см. в Атласе облаков (PDF).
T - Температура воздуха - температура, измеренная на высоте 2 м над землей.
Td - Температура точки росы - температура, при понижении до которой содержащийся в воздухе водяной пар достигнет насыщения.
f - Относительная влажность воздуха - влажноcть воздуха, измеренная на высоте 2 м над землей.
Te - Эффективная температура - температура, которую ощущает одетый по сезону человек в тени. Характеристика душности погоды. При расчете учитывается влияние влажности воздуха и скорости ветра на теплоощущения человека.
Tes - Эффективная температура на солнце - температура, которую ощущает человек, с поправкой на солнечный нагрев. Характеристика знойности погоды. Зависит от высоты солнца над горизонтом, облачности и скорости ветра. Ночью, в пасмурную погоду, а также при ветре 12 м/с и более поправка равна нулю.
P - Атмосферное давление - приведенное к уровню моря атмосферное давление.
Po - Атмосферное давление - измеренное на уровне метеостанции атмосферное давление.
Tmin - Минимальная температура - минимум температуры воздуха на высоте 2 м над землей.
Tmax - Максимальная температура - максимум температуры воздуха на высоте 2 м над землей.
R - Количество осадков - Количество выпавших осадков за период времени, мм. При наведении курсора мыши на число - период времени, за который выпало указанное количество осадков.
R24 - Количество осадков - Количество выпавших осадков за 24 часа, мм.
S - Снежный покров - Высота снежного покрова, см. При наведении курсора мыши на число - состояние снежного покрова и степень покрытия местности в баллах.